Location: Dittelbrunn
(50.0738°N, 10.2196°E)
Time: 12:13:39
(UTC+00:00)

Okean 2 Rocket - Pass Details

Date: 18 September 2020
Orbit: 616 x 642 km, 82.5° (Epoch: 25 October)

Event Time Altitude Azimuth Distance (km) Brightness Sun altitude
Rises 18:03:55 0° 157° (SSE) 2,934 6.2 -7.0°
Reaches altitude 10° 18:06:26 10° 145° (SE) 2,028 5.3 -7.4°
Maximum altitude 18:10:10 26° 88° (E) 1,247 4.1 -8.0°
Drops below altitude 10° 18:13:55 10° 32° (NNE) 2,030 5.5 -8.6°
Sets 18:16:25 0° 20° (NNE) 2,939 6.5 -8.9°
